Weather History for Kake, AK

Change the Weather History Date:

Sunday, February 17, 2013

  Actual Average Record
Temperature  
Mean Temperature 32 °F -  
Max Temperature 35 °F 36 °F 46 °F (1998)
Min Temperature 28 °F 29 °F 15 °F (2011)
Degree Days  
Heating Degree Days 34    
Moisture  
Dew Point 29 °F    
Average Humidity 83    
Maximum Humidity 93    
Minimum Humidity 75    
Precipitation  
Precipitation 0.08 in - - ()
Sea Level Pressure  
Sea Level Pressure 29.95 in    
Wind  
Wind Speed 8 mph (ESE)    
Max Wind Speed 15 mph    
Max Gust Speed 24 mph    
Visibility 9 miles    
Events      
Averages and records for this station are not official NWS values.
T = Trace of Precipitation, MM = Missing Value Source: NWS Daily Summary

Daily Weather History Graph

Daily Weather History Graph

Search for Another Location

Airport:

Trip Planner

Search our weather history database for the weather conditions in past years. The results will help you decide how hot, cold, wet, or windy it might be!

Date:

Astronomy

Feb. 17, 2013 Rise Set
Actual Time 7:17 AM AKST 5:02 PM AKST
Civil Twilight 6:38 AM AKST 5:41 PM AKST
Nautical Twilight 5:53 AM AKST 6:26 PM AKST
Astronomical Twilight 5:09 AM AKST 7:10 PM AKST
Moon 9:41 AM AKST (2/17) 1:37 AM AKST (2/17)
Length of Visible Light 11h 03m
Length of Day
9h 44m
Waxing Crescent, 50% of the Moon is Illuminated
Feb 17
Waxing Crescent
Feb 25
Full
Mar 4
Last Quarter
Mar 11
New
Mar 19
First Quarter

Hourly Weather History & Observations

Time (AKST) Temp. Windchill Dew Point Humidity Pressure Visibility Wind Dir Wind Speed Gust Speed Precip Events Conditions
12:16 AM 30.2 °F - 26.6 °F 86% 30.21 in 10.0 mi Calm Calm - N/A   Mostly Cloudy
12:36 AM 28.4 °F 21.2 °F 26.6 °F 93% 30.21 in 10.0 mi ENE 6.9 mph - N/A   Mostly Cloudy
12:56 AM 30.2 °F 25.4 °F 26.6 °F 86% 30.20 in 10.0 mi East 4.6 mph - N/A   Overcast
1:16 AM 30.2 °F 25.4 °F 26.6 °F 86% 30.20 in 10.0 mi East 4.6 mph - N/A   Overcast
1:36 AM 32.0 °F 26.4 °F 28.4 °F 87% 30.19 in 10.0 mi East 5.8 mph - N/A   Overcast
1:56 AM 33.8 °F 28.6 °F 28.4 °F 81% 30.19 in 10.0 mi East 5.8 mph - N/A   Overcast
2:16 AM 33.8 °F 27.7 °F 28.4 °F 81% 30.18 in 10.0 mi East 6.9 mph - N/A   Overcast
2:36 AM 33.8 °F 28.6 °F 28.4 °F 81% 30.17 in 10.0 mi East 5.8 mph - N/A   Overcast
2:56 AM 33.8 °F 28.6 °F 28.4 °F 81% 30.17 in 10.0 mi ESE 5.8 mph - N/A   Overcast
3:16 AM 33.8 °F 28.6 °F 28.4 °F 81% 30.16 in 10.0 mi ESE 5.8 mph - N/A   Overcast
3:36 AM 33.8 °F 27.0 °F 28.4 °F 81% 30.16 in 10.0 mi ESE 8.1 mph - N/A   Overcast
3:56 AM 33.8 °F 28.6 °F 28.4 °F 81% 30.15 in 10.0 mi ESE 5.8 mph - N/A   Overcast
4:16 AM 33.8 °F 28.6 °F 28.4 °F 81% 30.15 in 10.0 mi ESE 5.8 mph - N/A   Overcast
4:36 AM 33.8 °F 27.0 °F 28.4 °F 81% 30.13 in 10.0 mi ESE 8.1 mph - N/A   Overcast
4:56 AM 33.8 °F 27.7 °F 28.4 °F 81% 30.13 in 10.0 mi ESE 6.9 mph - N/A   Overcast
5:16 AM 33.8 °F 25.8 °F 28.4 °F 81% 30.12 in 10.0 mi ESE 10.4 mph - N/A   Overcast
5:36 AM 33.8 °F 26.4 °F 28.4 °F 81% 30.10 in 10.0 mi ESE 9.2 mph - N/A   Overcast
5:56 AM 33.8 °F 27.0 °F 28.4 °F 81% 30.10 in 10.0 mi East 8.1 mph - N/A   Overcast
6:16 AM 33.8 °F 26.4 °F 28.4 °F 81% 30.09 in 10.0 mi ESE 9.2 mph - N/A   Overcast
6:36 AM 33.8 °F 27.7 °F 28.4 °F 81% 30.08 in 10.0 mi ESE 6.9 mph - N/A   Overcast
6:56 AM 33.8 °F 27.0 °F 28.4 °F 81% 30.07 in 10.0 mi ESE 8.1 mph - N/A   Overcast
7:16 AM 33.8 °F 27.7 °F 28.4 °F 81% 30.06 in 10.0 mi East 6.9 mph - N/A   Overcast
7:36 AM 33.8 °F 26.4 °F 28.4 °F 81% 30.05 in 10.0 mi East 9.2 mph 17.3 mph N/A   Overcast
7:56 AM 33.8 °F 25.8 °F 28.4 °F 81% 30.04 in 10.0 mi ESE 10.4 mph 16.1 mph N/A   Overcast
8:16 AM 33.8 °F 25.8 °F 28.4 °F 81% 30.03 in 10.0 mi ESE 10.4 mph - N/A   Overcast
8:36 AM 35.6 °F 28.6 °F 28.4 °F 75% 30.03 in 10.0 mi ESE 9.2 mph - N/A   Overcast
8:56 AM 35.6 °F 29.2 °F 28.4 °F 75% 30.02 in 10.0 mi ESE 8.1 mph - N/A   Overcast
9:16 AM 33.8 °F 27.0 °F 28.4 °F 81% 30.02 in 5.0 mi ESE 8.1 mph - N/A   Overcast
9:36 AM 33.8 °F 26.4 °F 28.4 °F 81% 30.02 in 5.0 mi ESE 9.2 mph - N/A   Overcast
9:56 AM 33.8 °F 27.0 °F 28.4 °F 81% 30.01 in 7.0 mi SE 8.1 mph - N/A   Overcast
10:16 AM 33.8 °F 25.3 °F 30.2 °F 87% 30.01 in 7.0 mi ESE 11.5 mph - N/A   Overcast
10:36 AM 33.8 °F 26.4 °F 30.2 °F 87% 30.00 in 9.0 mi ESE 9.2 mph - N/A   Overcast
10:56 AM 33.8 °F 27.0 °F 30.2 °F 87% 29.99 in 5.0 mi ESE 8.1 mph - N/A   Overcast
11:16 AM 33.8 °F 25.3 °F 28.4 °F 81% 29.98 in 7.0 mi ESE 11.5 mph 18.4 mph N/A   Overcast
11:36 AM 33.8 °F 23.9 °F 28.4 °F 81% 29.97 in 5.0 mi SE 15.0 mph 19.6 mph N/A   Overcast
11:56 AM 33.8 °F 25.8 °F 28.4 °F 81% 29.96 in 5.0 mi ESE 10.4 mph 19.6 mph N/A   Overcast
12:16 PM 33.8 °F 25.3 °F 28.4 °F 81% 29.95 in 5.0 mi ESE 11.5 mph 18.4 mph N/A   Overcast
12:36 PM 33.8 °F 25.8 °F 28.4 °F 81% 29.94 in 4.0 mi ESE 10.4 mph - N/A   Overcast
12:56 PM 33.8 °F 25.3 °F 28.4 °F 81% 29.93 in 5.0 mi ESE 11.5 mph 18.4 mph N/A   Overcast
1:16 PM 33.8 °F 25.3 °F 30.2 °F 87% 29.92 in 7.0 mi ESE 11.5 mph - N/A   Overcast
1:36 PM 33.8 °F 25.8 °F 30.2 °F 87% 29.92 in 10.0 mi ESE 10.4 mph 17.3 mph N/A   Overcast
1:56 PM 33.8 °F 26.4 °F 30.2 °F 87% 29.90 in 8.0 mi ESE 9.2 mph 17.3 mph N/A   Overcast
2:16 PM 33.8 °F 25.8 °F 30.2 °F 87% 29.90 in 10.0 mi ESE 10.4 mph - N/A   Overcast
2:36 PM 33.8 °F 26.4 °F 30.2 °F 87% 29.88 in 10.0 mi ESE 9.2 mph 20.7 mph N/A   Overcast
2:56 PM 35.6 °F 28.0 °F 30.2 °F 81% 29.87 in 10.0 mi ESE 10.4 mph - N/A   Overcast
3:16 PM 35.6 °F 26.6 °F 30.2 °F 81% 29.86 in 10.0 mi ESE 13.8 mph 19.6 mph N/A   Overcast
3:36 PM 35.6 °F 26.6 °F 30.2 °F 81% 29.86 in 10.0 mi ESE 13.8 mph 19.6 mph N/A   Overcast
3:56 PM 33.8 °F 24.8 °F 30.2 °F 87% 29.85 in 10.0 mi ESE 12.7 mph 20.7 mph N/A   Mostly Cloudy
4:16 PM 33.8 °F 23.9 °F 30.2 °F 87% 29.84 in 10.0 mi ESE 15.0 mph 19.6 mph N/A   Overcast
4:36 PM 33.8 °F 24.8 °F 30.2 °F 87% 29.83 in 10.0 mi ESE 12.7 mph 18.4 mph 0.01 in   Overcast
4:56 PM 33.8 °F 25.3 °F 30.2 °F 87% 29.82 in 10.0 mi ESE 11.5 mph 16.1 mph 0.01 in   Overcast
5:16 PM 33.8 °F 24.8 °F 30.2 °F 87% 29.81 in 10.0 mi ESE 12.7 mph 19.6 mph N/A   Overcast
5:36 PM 33.8 °F 24.8 °F 30.2 °F 87% 29.80 in 10.0 mi ESE 12.7 mph 19.6 mph N/A   Overcast
5:56 PM 33.8 °F 25.8 °F 30.2 °F 87% 29.79 in 10.0 mi ESE 10.4 mph 19.6 mph 0.01 in   Overcast
6:16 PM 33.8 °F 24.3 °F 30.2 °F 87% 29.79 in 10.0 mi ESE 13.8 mph 23.0 mph N/A   Overcast
6:36 PM 33.8 °F 25.3 °F 30.2 °F 87% 29.78 in 10.0 mi ESE 11.5 mph 17.3 mph 0.01 in   Overcast
6:56 PM 33.8 °F 24.8 °F 30.2 °F 87% 29.77 in 10.0 mi ESE 12.7 mph 18.4 mph 0.01 in   Overcast
7:16 PM 33.8 °F 24.8 °F 30.2 °F 87% 29.77 in 10.0 mi ESE 12.7 mph 24.2 mph 0.01 in   Overcast
7:36 PM 33.8 °F 25.3 °F 30.2 °F 87% 29.76 in 10.0 mi ESE 11.5 mph 16.1 mph 0.01 in   Mostly Cloudy
7:56 PM 33.8 °F 27.0 °F 30.2 °F 87% 29.76 in 10.0 mi ESE 8.1 mph 17.3 mph 0.01 in   Overcast
8:16 PM 35.6 °F 27.5 °F 30.2 °F 81% 29.76 in 10.0 mi ESE 11.5 mph 19.6 mph N/A   Overcast
8:36 PM 33.8 °F 24.3 °F 30.2 °F 87% 29.76 in 10.0 mi ESE 13.8 mph - 0.01 in   Overcast
8:56 PM 35.6 °F 27.5 °F 30.2 °F 81% 29.75 in 10.0 mi ESE 11.5 mph 21.9 mph 0.02 in   Overcast
9:16 PM 35.6 °F 26.6 °F 30.2 °F 81% 29.75 in 10.0 mi ESE 13.8 mph 19.6 mph N/A   Overcast
9:36 PM 35.6 °F 27.1 °F 30.2 °F 81% 29.75 in 10.0 mi ESE 12.7 mph - N/A   Overcast
9:56 PM 35.6 °F 26.6 °F 30.2 °F 81% 29.75 in 10.0 mi ESE 13.8 mph 19.6 mph 0.01 in   Overcast
10:16 PM 35.6 °F 28.0 °F 30.2 °F 81% 29.75 in 10.0 mi ESE 10.4 mph 19.6 mph N/A   Mostly Cloudy
10:36 PM 35.6 °F 28.0 °F 30.2 °F 81% 29.75 in 10.0 mi ESE 10.4 mph 18.4 mph N/A   Overcast
10:56 PM 35.6 °F 27.5 °F 30.2 °F 81% 29.75 in 10.0 mi ESE 11.5 mph - 0.01 in   Overcast
11:16 PM 35.6 °F 27.5 °F 30.2 °F 81% 29.74 in 10.0 mi ESE 11.5 mph - N/A   Overcast
11:36 PM 35.6 °F 27.1 °F 30.2 °F 81% 29.74 in 10.0 mi ESE 12.7 mph 17.3 mph N/A   Overcast
11:56 PM 35.6 °F 28.0 °F 32.0 °F 87% 29.74 in 10.0 mi ESE 10.4 mph 18.4 mph N/A   Overcast